P5SG EPWA-EPKK

Flight info

Callsign P5SG
Flight time N/A
Altitude 25000
Route EPWA DIR WA514 DIR OTMUL DIR OFFUK DIR EPKK
Aircraft B732/M-S/LB1

Departure

Time 2026-05-04 22:50
Airport Warsaw Chopin Airport (EPWA)

Arrival

Time N/A
Airport Kraków John Paul II International Airport (EPKK)
Time Latitude Longitude Altitude Speed Heading
2026-05-04 22:43 52.15763 20.97991 369 ft 0 kts 115°
2026-05-04 22:43 52.15762 20.97991 369 ft 0 kts 115°
2026-05-04 22:44 52.15762 20.97992 369 ft 0 kts 115°
2026-05-04 22:45 52.15762 20.97993 369 ft 0 kts 115°
2026-05-04 22:46 52.15751 20.98035 369 ft 14 kts 114°
2026-05-04 22:46 52.15745 20.98053 369 ft 0 kts 117°
2026-05-04 22:47 52.15745 20.98054 369 ft 0 kts 117°
2026-05-04 22:47 52.15736 20.98072 369 ft 14 kts 143°
2026-05-04 22:47 52.15650 20.98040 369 ft 11 kts 227°
2026-05-04 22:48 52.15648 20.97872 369 ft 19 kts 311°
2026-05-04 22:48 52.15816 20.97787 369 ft 38 kts 326°
2026-05-04 22:48 52.16150 20.97487 369 ft 66 kts 331°
2026-05-04 22:48 52.16541 20.97148 369 ft 73 kts 332°
2026-05-04 22:49 52.17048 20.96705 369 ft 92 kts 330°
2026-05-04 22:49 52.17633 20.96191 369 ft 86 kts 329°
2026-05-04 22:49 52.17938 20.95892 369 ft 16 kts 268°
2026-05-04 22:49 52.17878 20.95678 369 ft 27 kts 233°
2026-05-04 22:50 52.17671 20.95731 369 ft 63 kts 146°
2026-05-04 22:50 52.17025 20.96316 369 ft 150 kts 152°
2026-05-04 22:50 52.15871 20.97405 692 ft 218 kts 147°
2026-05-04 22:50 52.14462 20.98856 1979 ft 265 kts 147°
2026-05-04 22:51 52.12686 21.00651 2656 ft 327 kts 148°
2026-05-04 22:51 52.10837 21.02521 2734 ft 296 kts 148°
2026-05-04 22:51 52.09176 21.04197 3067 ft 272 kts 148°
2026-05-04 22:51 52.07523 21.05574 3412 ft 266 kts 162°
2026-05-04 22:52 52.05691 21.05778 3793 ft 261 kts 189°
2026-05-04 22:52 52.03945 21.05015 4201 ft 261 kts 200°
2026-05-04 22:52 52.02234 21.04031 4578 ft 263 kts 201°
2026-05-04 22:52 52.00480 21.03149 4956 ft 263 kts 197°
2026-05-04 22:53 51.98691 21.02495 5337 ft 265 kts 193°
2026-05-04 22:53 51.96852 21.02068 5719 ft 267 kts 189°
2026-05-04 22:53 51.95000 21.01704 6102 ft 267 kts 192°
2026-05-04 22:53 51.93176 21.01130 6483 ft 268 kts 195°
2026-05-04 22:54 51.91380 21.00427 6857 ft 268 kts 197°
2026-05-04 22:54 51.89568 20.99630 7234 ft 269 kts 199°
2026-05-04 22:54 51.87759 20.98779 7611 ft 270 kts 199°
2026-05-04 22:54 51.85946 20.97890 7988 ft 272 kts 200°
2026-05-04 22:55 51.84152 20.96987 8362 ft 273 kts 200°
2026-05-04 22:55 51.82313 20.96047 8741 ft 275 kts 201°
2026-05-04 22:55 51.80502 20.95110 9114 ft 276 kts 200°
2026-05-04 22:55 51.78658 20.94151 9490 ft 278 kts 201°
2026-05-04 22:56 51.76819 20.93188 9863 ft 279 kts 200°
2026-05-04 22:56 51.74956 20.92210 10244 ft 282 kts 200°
2026-05-04 22:56 51.73092 20.91231 10622 ft 283 kts 200°
2026-05-04 22:56 51.71206 20.90238 10998 ft 285 kts 200°
2026-05-04 22:57 51.69323 20.89247 11372 ft 286 kts 200°
2026-05-04 22:57 51.67428 20.88250 11749 ft 288 kts 201°
2026-05-04 22:57 51.65497 20.87233 12127 ft 290 kts 201°
2026-05-04 22:57 51.63595 20.86233 12503 ft 291 kts 201°
2026-05-04 22:58 51.61654 20.85212 12881 ft 293 kts 200°
2026-05-04 22:58 51.59705 20.84188 13259 ft 294 kts 201°
2026-05-04 22:58 51.57756 20.83164 13630 ft 296 kts 200°
2026-05-04 22:58 51.55783 20.82129 14009 ft 298 kts 200°
2026-05-04 22:59 51.53822 20.81100 14383 ft 300 kts 201°
2026-05-04 22:59 51.51823 20.80054 14761 ft 302 kts 200°
2026-05-04 22:59 51.49825 20.79007 15136 ft 303 kts 201°
2026-05-04 22:59 51.47817 20.77957 15512 ft 305 kts 200°
2026-05-04 23:00 51.45782 20.76895 15890 ft 307 kts 200°
2026-05-04 23:00 51.43750 20.75834 16265 ft 309 kts 200°
2026-05-04 23:00 51.41705 20.74770 16641 ft 310 kts 200°
2026-05-04 23:00 51.39650 20.73698 17017 ft 312 kts 200°
2026-05-04 23:01 51.37565 20.72613 17396 ft 315 kts 200°
2026-05-04 23:01 51.35482 20.71530 17771 ft 316 kts 200°
2026-05-04 23:01 51.33385 20.70442 18145 ft 318 kts 200°
2026-05-04 23:01 51.31258 20.69338 18525 ft 320 kts 200°
2026-05-04 23:02 51.29137 20.68238 18900 ft 322 kts 200°
2026-05-04 23:02 51.27002 20.67133 19274 ft 324 kts 201°
2026-05-04 23:02 51.24852 20.66020 19651 ft 326 kts 200°
2026-05-04 23:02 51.22706 20.64910 20025 ft 328 kts 200°
2026-05-04 23:03 51.20503 20.63773 20410 ft 330 kts 200°
2026-05-04 23:03 51.18333 20.62655 20788 ft 332 kts 200°
2026-05-04 23:03 51.16134 20.61521 21163 ft 334 kts 200°
2026-05-04 23:03 51.13890 20.60366 21547 ft 336 kts 200°
2026-05-04 23:04 51.11678 20.59228 21918 ft 338 kts 200°
2026-05-04 23:04 51.09439 20.58077 22298 ft 340 kts 200°
2026-05-04 23:04 51.07156 20.56904 22685 ft 343 kts 200°
2026-05-04 23:04 51.04901 20.55749 23058 ft 345 kts 200°
2026-05-04 23:05 51.02584 20.54561 23440 ft 347 kts 200°
2026-05-04 23:05 51.00283 20.53383 23813 ft 349 kts 200°
2026-05-04 23:05 50.97908 20.52170 24199 ft 352 kts 200°
2026-05-04 23:05 50.95562 20.50972 24575 ft 354 kts 200°
2026-05-04 23:06 50.93207 20.49770 24825 ft 360 kts 200°
2026-05-04 23:06 50.90798 20.48543 24933 ft 364 kts 200°
2026-05-04 23:06 50.88373 20.47308 24981 ft 365 kts 200°
2026-05-04 23:06 50.85952 20.46078 24997 ft 365 kts 200°
2026-05-04 23:07 50.83544 20.44856 24987 ft 365 kts 200°